Location: Unspecified
(0.0000°N, 0.0000°E)
Time: 03:45:17
(UTC+00:00)

Cosmos 2058 - Pass Details

Date: 28 April 2019
Orbit: 561 x 585 km, 82.5° (Epoch: 21 May)

Event Time Altitude Azimuth Distance (km) Brightness Sun altitude
Rises 18:42:56 0° 343° (NNW) 2,734 6.8 -11.0°
Reaches altitude 10° 18:45:12 10° 336° (NNW) 1,842 6.1 -11.5°
Maximum altitude 18:49:00 39° 266° (W) 844 4.4 -12.5°
Drops below altitude 10° 18:52:49 10° 196° (SSW) 1,855 5.5 -13.4°
Sets 18:55:06 0° 189° (S) 2,756 6.3 -13.9°
